This demonstration page uses our WeatherBlox Daily Observations layout. Learn more.

39.01783, -85.05884

Hourly Observations for January 3, 2019

Temp ( °F °C ) Dew Point ( °F °C ) Humidity (%) Winds ( mph kmh ) Pressure ( in mb ) Visibility ( mi km ) Precip ( " mm )
12:52 am 00:52 Cloudy 36 2.2 31 -0.6 82 82 WNW 14 22 30.09 1019 9 14.484096 0 0
1:52 am 01:52 Cloudy 36 2.2 30 -1.1 79 79 WNW 10 17 30.09 1019 10 16.09344 0 0
2:52 am 02:52 Cloudy 36 2.2 30 -1.1 79 79 W 7 11 30.06 1018 10 16.09344 0 0
3:52 am 03:52 Cloudy 35 1.7 30 -1.1 82 82 W 7 11 30.06 1018 10 16.09344 0 0
4:52 am 04:52 Cloudy 35 1.7 29 -1.7 78 78 W 7 11 30.06 1018 10 16.09344 0 0
5:52 am 05:52 Cloudy 35 1.7 29 -1.7 78 78 WNW 7 11 30.09 1019 10 16.09344 0 0
6:52 am 06:52 Cloudy 35 1.7 28 -2.2 76 76 NW 8 13 30.09 1019 10 16.09344 0 0
7:52 am 07:52 Cloudy 35 1.7 28 -2.2 76 76 NW 5 7 30.12 1020 10 16.09344 0 0
8:16 am 08:16 Cloudy 35 1.7 29 -1.7 78 78 W 3 6 30.15 1021 10 16.09344 0 0
8:52 am 08:52 Cloudy 35 1.7 28 -2.2 76 76 W 3 6 30.12 1020 10 16.09344 0 0
9:52 am 09:52 Cloudy 35 1.7 28 -2.2 76 76 WSW 6 9 30.15 1021 10 16.09344 0 0
10:52 am 10:52 Cloudy 36 2.2 29 -1.7 76 76 SSW 6 9 30.15 1021 10 16.09344 0 0
11:52 am 11:52 Mostly Cloudy 38 3.3 30 -1.1 73 73 WSW 6 9 30.12 1020 10 16.09344 0 0
12:37 pm 12:37 Partly Cloudy 37 2.8 29 -1.7 73 73 W 5 7 30.12 1020 10 16.09344 0 0
12:52 pm 12:52 Mostly Cloudy 38 3.3 30 -1.1 73 73 Calm 30.06 1018 10 16.09344 0 0
1:52 pm 13:52 Mostly Cloudy 39 3.9 30 -1.1 70 70 VRB 7 11 30.06 1018 10 16.09344 0 0
2:52 pm 14:52 Mostly Cloudy 42 5.6 30 -1.1 62 62 VRB 3 6 30.06 1018 10 16.09344 0 0
3:52 pm 15:52 Mostly Cloudy 40 4.4 30 -1.1 68 68 NW 7 11 30.06 1018 10 16.09344 0 0
4:52 pm 16:52 Mostly Cloudy 38 3.3 30 -1.1 73 73 Calm 30.06 1018 9 14.484096 0 0
5:52 pm 17:52 Mostly Cloudy 33 0.6 29 -1.7 85 85 SSW 7 11 30.06 1018 10 16.09344 0 0
6:52 pm 18:52 Mostly Cloudy 36 2.2 29 -1.7 76 76 Calm 30.06 1018 10 16.09344 0 0
7:52 pm 19:52 Cloudy 31 -0.6 28 -2.2 89 89 Calm 30.06 1018 7 11.265408 0 0
8:52 pm 20:52 Cloudy 30 -1.1 27 -2.8 88 88 S 3 6 30.06 1018 7 11.265408 0 0
9:52 pm 21:52 Cloudy 31 -0.6 28 -2.2 89 89 Calm 30.06 1018 7 11.265408 0 0
10:52 pm 22:52 Clear with Mist and Fog 31 -0.6 28 -2.2 89 89 S 6 9 30.03 1017 5 8.04672 0 0
11:52 pm 23:52 Cloudy with Mist and Fog 32 0 29 -1.7 88 88 Calm 30.03 1017 6 9.656064 0 0

Powered by AerisWeather